Regional Weather Roundup
Issued by NWS

Home | Current Version | Previous Version | Graphics & Text | Print | Product List | Glossary On
Versions: 1 2 3 4 5 6 7 8 9 10 11 12 13 14 15 16 17 18 19 20 21 22 23 24 25 26 27
000
ASUS45 KBOU 231807
RWRCO

WEATHER ROUNDUP FOR COLORADO
NATIONAL WEATHER SERVICE DENVER/BOULDER CO
1200 PM MDT SAT SEP 23 2017

NOTE: "FAIR" INDICATES FEW OR NO CLOUDS BELOW 12000 FEET WITH NO
SIGNIFICANT WEATHER AND/OR OBSTRUCTIONS TO VISIBILITY.

COZ001>005-013-030-031-231900-
...NORTHWEST COLORADO...

CITY           SKY/WX    TMP DP  RH WIND       PRES   REMARKS
CRAIG          CLOUDY    51  40  65 S16G26    29.94S
HAYDEN         LGT RAIN  46  42  86 E12       30.00F
MEEKER         LGT RAIN  49  42  77 SE17G29   29.92F
RABBIT EARS PA SNOW      32  32 100 W14G20    30.10R VSB 1/4 WCI  22
STEAMBOAT SPGS CLOUDY    41  40  94 NW8       30.02R
WALDEN         PTSUNNY   50  36  57 N23       29.99F
$$

COZ006>008-011-231900-
...WEST CENTRAL VALLEYS...

CITY           SKY/WX    TMP DP  RH WIND       PRES   REMARKS
GRAND JUNCTION CLOUDY    54  46  74 SE21G30   29.88S
MONTROSE       LGT RAIN  50  45  83 VRB7      29.97S
EAGLE          CLOUDY    49  44  83 CALM      29.99R
RIFLE          LGT RAIN  51  48  89 E7        29.95F
DELTA          NOT AVBL
NUCLA          LGT RAIN  50  43  76 E3        29.95F
$$

COZ017>023-064>068-231900-
...SOUTHWEST COLORADO...

CITY           SKY/WX    TMP DP  RH WIND       PRES   REMARKS
DURANGO        LGT RAIN  54  44  69 W23G33    29.97R
CORTEZ         LGT RAIN  53  47  79 SE15G22   29.91F
PAGOSA SPRINGS LGT RAIN  58  47  67 E6        29.97F
TELLURIDE      RAIN      39  38  96 S3        30.06S
WOLF CREEK PAS RAIN      34  34 100 S31G44    30.17F VSB<1/4 WCI  20
$$

COZ009-010-012-014-032>034-037-058>063-231900-
...CENTRAL COLORADO...

CITY           SKY/WX    TMP DP  RH WIND       PRES   REMARKS
ASPEN          LGT RAIN  45  41  86 NW5       30.00R
BUENA VISTA    DRIZZLE   57  45  65 S5        29.97F
COPPER MTN     FAIR      54  30  40 SE29G40   30.12F
BERTHOUD PASS  CLOUDY    36  28  75 S36G47    30.19S
COTTONWOOD PAS CLOUDY    52  45  76 SE14G24   30.06F
GUNNISON       FAIR      60  40  47 SE9       29.90F
KREMMLING      PTSUNNY   61  41  48 W20       29.94S
LEADVILLE      PTSUNNY   52  33  48 S24G36    30.00F
MONARCH PASS   LGT RAIN  37  36  93 SW21G26   30.28F
SALIDA         PTSUNNY   65  42  43 S13G21    30.03F
SUNLIGHT       SNOW      32  32 100 MISG      30.12S VSB 1/2
WILKERSON PASS CLOUDY    45  37  76 S7        30.19F
$$

COZ069>075-231900-
...SAN LUIS VALLEY/SANGRE DE CRISTO MOUNTAINS...

CITY           SKY/WX    TMP DP  RH WIND       PRES   REMARKS
ALAMOSA        PTSUNNY   65  42  43 S21G28    29.96F
DEL NORTE      PTSUNNY   57  44  61 N3        29.99F
LA VETA PASS   PTSUNNY   59  36  41 S20G41    30.24F
SAGUACHE       PTSUNNY   59  46  63 S8G16     30.00F
$$

COZ035-036-038>040-231900-
...NORTHERN COLORADO FRONT RANGE...

CITY           SKY/WX    TMP DP  RH WIND       PRES   REMARKS
DENVER INTL AP CLOUDY    50  42  74 SE8       29.99F
DMNS CITY PARK   N/A     51  42  72 E14       29.98F
AURORA         CLOUDY    49  44  82 E8        29.99F
FRONT RANGE AP CLOUDY    50  46  87 E8G17     30.02S
ERIE MUNI ARPT CLOUDY    53  42  66 E8        30.05S
BOULDER MUN AP RAIN      52  43  71 SE7       30.00R
CENTENNIAL     CLOUDY    51  43  74 NE7       29.99F
BROOMFIELD     CLOUDY    52  43  71 MISG      30.01S
FORT COLLINS   CLOUDY    52  42  69 E18       30.01R
LONGMONT       CLOUDY    56  42  61 E8        30.01S
$$

COZ041-046-047-076>085-087-088-231900-
...PIKES PEAK/PALMER DIVIDE AND SOUTHERN FOOTHILLS...

CITY           SKY/WX    TMP DP  RH WIND       PRES   REMARKS
COLO. SPRINGS  PTSUNNY   58  47  66 E3        29.98F
A. F. ACADEMY  CLOUDY    55  44  66 SE9       29.97F
SCHRIEVER AFB  FAIR      56  47  72 E6        29.97F
CHEYENNE MTN   CLOUDY    54  43  66 CALM      29.95F
ELLICOTT         N/A    N/A N/A N/A E10       29.96F
FALCON         CLOUDY    55  46  71 E9        30.01F
FORT CARSON    PTSUNNY   59  45  60 N5        29.95F
LIMON            N/A    N/A N/A N/A MISG      29.96F
MONUMENT HILL  CLOUDY    48  41  76 E9        30.02F
CANON CITY     CLOUDY    64  48  55 NE12      29.91F
WALSENBURG     MOCLDY    70  50  49 MISG      29.91F
TRINIDAD       CLOUDY    62  55  77 S20       29.92F
$$

COZ042>045-048>051-090-091-231900-
...NORTHEAST COLORADO...

CITY           SKY/WX    TMP DP  RH WIND       PRES   REMARKS
GREELEY ARPT   CLOUDY    51  42  71 E9        30.02R
AKRON          RAIN      47  45  93 S7        30.04R FOG
BURLINGTON     FAIR      59  48  67 N9        29.98F
WRAY           TSTM     N/A N/A N/A W3        30.04R
YUMA           RAIN      45  45 100 NE3       30.03F
STERLING       RAIN      46  46 100 NW3       30.03R
HOLYOKE        TSTM      54  50  87 SE3       30.07R VSB 1
FORT MORGAN    DRIZZLE   47  44  87 SE5       30.04R
$$

COZ086-089-092>099-231900-
...SOUTHEAST COLORADO...

CITY           SKY/WX    TMP DP  RH WIND       PRES   REMARKS
PUEBLO         FAIR      63  50  62 E7        29.90F
LA JUNTA       LGT RAIN  56  55  97 E8        29.94R
LAMAR          PTSUNNY   70  55  59 N9        29.91F
SPRINGFIELD      N/A     72  62  71 S18       29.94S
$$




USA.gov is the U.S. government's official web portal to all federal, state and local government web resources and services.